(462574) = 2005 CE75 = 2009 DB129

Discovered at Mount Lemmon on 2009-02-24 by Mt. Lemmon Survey.

Orbit

Orbit type: Main Belt

Note: WebGL enabled browser required.

epoch2023-02-25.0
epoch JD2460000.5
perihelion date2020-05-16.85325
perihelion JD2458986.35325
argument of perihelion (°)140.58787
ascending node (°)85.99123
inclination (°)3.15409
eccentricity0.1372154
perihelion distance (AU)2.0419045
Tisserand w.r.t. Jupiter3.5
ΔV w.r.t. Earth (km/sec)8.9
semimajor axis (AU)2.3666447
mean anomaly (°)274.53964
mean daily motion (°/day)0.27071000
aphelion distance (AU)2.691
period (years)3.64
P-vector [x]-0.68639309
P-vector [y]-0.68034640
P-vector [z]-0.25689160
Q-vector [x]0.72515650
Q-vector [y]-0.61364919
Q-vector [z]-0.31238233
absolute magnitude17.9
phase slope0.15
uncertainty0
referenceMPEC 2023-B205
observations used179
oppositions9
arc length (days)6569
first opposition used2005
last opposition used2023
residual rms (arc-secs)0.76
perturbers coarse indicatorM-v
perturbers precise indicator003Ek
first observation date used2005-02-02.0
last observation date used2023-01-28.0
computer nameMPCLINUX
Minimum Orbit Intersection Distances (in AU)
for orbit epoch: 2460000.5, reference: E2023-BK5
Mercury1.58613
Venus1.31812
Earth1.03349
Mars0.45243
Jupiter2.28437
Saturn6.42644
Uranus16.2006
Neptune27.1744

Observations

182 total observations over interval: 2005 02 02.23093 – 2023 01 28.285972
These data are available for download (format description).

Date (UT) J2000 RA J2000 Dec Magn Location Ref
2005 02 02.23093 10 03 16.10 +16 42 12.5 20.9 V 691 – Steward Observatory, Kitt Peak-Spacewatch MPS 130048
2005 02 02.26392 10 03 14.29 +16 42 25.0 20.8 V 691 – Steward Observatory, Kitt Peak-Spacewatch MPS 130048
2005 02 02.29002 10 03 12.87 +16 42 35.4 20.8 V 691 – Steward Observatory, Kitt Peak-Spacewatch MPS 130048
2005 02 09.30516 09 56 39.45 +17 28 20.8 19.8 R G96 – Mt. Lemmon Survey MPS 130048
2005 02 09.31004 09 56 39.19 +17 28 22.5 19.6 R G96 – Mt. Lemmon Survey MPS 130048
2005 02 09.31494 09 56 38.86 +17 28 24.1 19.7 R G96 – Mt. Lemmon Survey MPS 130048
2005 02 09.31985 09 56 38.56 +17 28 26.4 19.9 R G96 – Mt. Lemmon Survey MPS 130048
2009 02 24.46766 14 06 00.21 -07 47 52.5 21.9 V G96 – Mt. Lemmon Survey MPS 282737
2009 02 24.47167 14 06 00.25 -07 47 52.8 21.1 V G96 – Mt. Lemmon Survey MPS 282737
2009 02 24.47564 14 06 00.32 -07 47 52.6 21.0 V G96 – Mt. Lemmon Survey MPS 282737
2009 02 24.47968 14 06 00.43 -07 47 53.0 21.1 V G96 – Mt. Lemmon Survey MPS 282737
2009 03 01.47005 14 07 39.61 -07 48 14.0 21.1 V G96 – Mt. Lemmon Survey MPS 282737
2009 03 01.47690 14 07 39.68 -07 48 13.5 21.4 V G96 – Mt. Lemmon Survey MPS 282737
2009 03 01.48380 14 07 39.75 -07 48 13.9 21.0 V G96 – Mt. Lemmon Survey MPS 282737
2009 03 01.49071 14 07 39.82 -07 48 13.3 21.3 V G96 – Mt. Lemmon Survey MPS 282737
2009 03 18.35839 14 07 19.41 -07 21 30.1   691 – Steward Observatory, Kitt Peak-Spacewatch MPS 282737
2009 03 18.37599 14 07 19.05 -07 21 27.0   691 – Steward Observatory, Kitt Peak-Spacewatch MPS 282737
2009 03 18.39121 14 07 18.74 -07 21 24.8   691 – Steward Observatory, Kitt Peak-Spacewatch MPS 282737
2009 03 29.29581 14 02 11.63 -06 44 07.4   691 – Steward Observatory, Kitt Peak-Spacewatch MPS 282737
2009 03 29.31349 14 02 10.89 -06 44 03.4   691 – Steward Observatory, Kitt Peak-Spacewatch MPS 282737
2009 03 29.33119 14 02 10.21 -06 43 59.1   691 – Steward Observatory, Kitt Peak-Spacewatch MPS 282737
2009 04 02.29876 13 59 28.48 -06 27 44.4 20.0 V 691 – Steward Observatory, Kitt Peak-Spacewatch MPS 283788
2009 04 02.31646 13 59 27.66 -06 27 40.1 20.3 V 691 – Steward Observatory, Kitt Peak-Spacewatch MPS 283788
2009 04 02.33417 13 59 26.81 -06 27 35.9 19.7 V 691 – Steward Observatory, Kitt Peak-Spacewatch MPS 283788
2009 04 18.35958 13 45 45.14 -05 18 27.0 20.0 V G96 – Mt. Lemmon Survey MPS 284507
2009 04 18.36648 13 45 44.74 -05 18 25.5 19.5 V G96 – Mt. Lemmon Survey MPS 284507
2009 04 18.37335 13 45 44.35 -05 18 24.9 19.3 V G96 – Mt. Lemmon Survey MPS 284507
2009 04 18.38009 13 45 43.95 -05 18 22.2 19.8 V G96 – Mt. Lemmon Survey MPS 284507
2009 04 21.31627 13 43 01.48 -05 06 41.8 19.8   704 – Lincoln Laboratory ETS, New Mexico MPS 284507
2009 04 21.32955 13 43 00.66 -05 06 38.6 20.2   704 – Lincoln Laboratory ETS, New Mexico MPS 284507
2009 04 21.35360 13 42 59.27 -05 06 34.9 20.3   704 – Lincoln Laboratory ETS, New Mexico MPS 284507
2009 04 21.36595 13 42 58.59 -05 06 31.1 19.8   704 – Lincoln Laboratory ETS, New Mexico MPS 284507
2009 05 13.25206 13 26 10.10 -04 16 59.1 20.3 V G96 – Mt. Lemmon Survey MPS 286449
2009 05 13.26031 13 26 09.81 -04 16 58.5 20.1 V G96 – Mt. Lemmon Survey MPS 286449
2009 05 13.26852 13 26 09.56 -04 16 58.5 20.0 V G96 – Mt. Lemmon Survey MPS 286449
2009 05 13.27675 13 26 09.24 -04 16 58.5 20.5 V G96 – Mt. Lemmon Survey MPS 286449
2010 09 30.27444 00 28 44.79 -02 24 15.2 21.1 V G96 – Mt. Lemmon Survey MPS 349558
2010 09 30.28021 00 28 44.50 -02 24 17.8 21.4 V G96 – Mt. Lemmon Survey MPS 349558
2010 09 30.28597 00 28 44.14 -02 24 19.2 21.0 V G96 – Mt. Lemmon Survey MPS 349558
2010 09 30.29165 00 28 43.82 -02 24 20.7 20.2 V G96 – Mt. Lemmon Survey MPS 349558
2016 02 09.54770 10 46 23.077 +13 08 05.63 20.9 w F51 – Pan-STARRS 1, Haleakala MPS 679106
2016 02 09.56112 10 46 22.438 +13 08 10.63 20.7 w F51 – Pan-STARRS 1, Haleakala MPS 679106
2016 02 09.57449 10 46 21.794 +13 08 15.90 20.8 w F51 – Pan-STARRS 1, Haleakala MPS 679106
2016 02 09.58804 10 46 21.145 +13 08 20.97 20.7 w F51 – Pan-STARRS 1, Haleakala MPS 679106
2016 03 04.26753 10 24 30.66 +15 42 03.3 20.6 V G96 – Mt. Lemmon Survey MPS 725031
2016 03 04.27618 10 24 30.14 +15 42 06.7 20.5 V G96 – Mt. Lemmon Survey MPS 725031
2016 03 04.28381 10 24 29.67 +15 42 08.6 20.6 V G96 – Mt. Lemmon Survey MPS 725031
2016 03 04.28928 10 24 29.35 +15 42 11.1 20.3 V G96 – Mt. Lemmon Survey MPS 725031
2016 03 06.33855 10 22 32.703 +15 53 24.08 20.4 w F51 – Pan-STARRS 1, Haleakala MPS 690205
2016 03 06.35020 10 22 32.018 +15 53 27.92 20.5 w F51 – Pan-STARRS 1, Haleakala MPS 690205
2016 03 06.36195 10 22 31.321 +15 53 31.66 20.5 w F51 – Pan-STARRS 1, Haleakala MPS 690205
2017 07 05.57075 22 53 55.345 -10 57 38.15 22.0 w F51 – Pan-STARRS 1, Haleakala MPS 804867
2017 07 05.60395 22 53 55.579 -10 57 41.12 22.0 w F51 – Pan-STARRS 1, Haleakala MPS 804867
2017 07 24.49106 22 51 31.157 -11 54 18.00 21.7 w F51 – Pan-STARRS 1, Haleakala MPS 807874
2017 07 24.50200 22 51 30.885 -11 54 20.88 21.4 w F51 – Pan-STARRS 1, Haleakala MPS 807874
2017 07 24.51294 22 51 30.581 -11 54 23.99 21.4 w F51 – Pan-STARRS 1, Haleakala MPS 807874
2017 07 24.52444 22 51 30.272 -11 54 27.21 21.4 w F51 – Pan-STARRS 1, Haleakala MPS 807874
2017 08 01.48285 22 47 26.209 -12 34 45.12 21.1 w F51 – Pan-STARRS 1, Haleakala MPS 809280
2017 08 01.49419 22 47 25.757 -12 34 48.93 21.2 w F51 – Pan-STARRS 1, Haleakala MPS 809280
2017 08 01.50552 22 47 25.326 -12 34 52.71 21.0 w F51 – Pan-STARRS 1, Haleakala MPS 809280
2017 08 01.51687 22 47 24.856 -12 34 56.53 21.1 w F51 – Pan-STARRS 1, Haleakala MPS 809280
2017 08 17.43008 22 34 59.269 -14 11 47.22 20.8 w F51 – Pan-STARRS 1, Haleakala MPS 812021
2017 08 17.44105 22 34 58.643 -14 11 51.44 20.9 w F51 – Pan-STARRS 1, Haleakala MPS 812021
2017 08 17.45202 22 34 58.020 -14 11 55.73 21.0 w F51 – Pan-STARRS 1, Haleakala MPS 812021
2017 08 17.46298 22 34 57.389 -14 11 59.83 20.9 w F51 – Pan-STARRS 1, Haleakala MPS 812021
2017 09 14.36956 22 09 46.979 -16 36 21.57 21.1 w F51 – Pan-STARRS 1, Haleakala MPS 816974
2017 09 14.38099 22 09 46.438 -16 36 23.76 21.2 w F51 – Pan-STARRS 1, Haleakala MPS 816974
2017 09 14.39241 22 09 45.900 -16 36 26.04 21.1 w F51 – Pan-STARRS 1, Haleakala MPS 816974
2017 09 14.40381 22 09 45.370 -16 36 28.29 21.2 w F51 – Pan-STARRS 1, Haleakala MPS 816974
2018 12 15.45695 04 52 37.814 +21 48 05.35 21.4 w F51 – Pan-STARRS 1, Haleakala MPS 966880
2018 12 15.46800 04 52 37.053 +21 48 04.54 21.5 w F51 – Pan-STARRS 1, Haleakala MPS 966880
2018 12 15.48999 04 52 35.567 +21 48 03.76 21.2 w F51 – Pan-STARRS 1, Haleakala MPS 966880
2020 03 21.55076 15 02 31.733 -12 30 28.24 20.9 w F51 – Pan-STARRS 1, Haleakala MPS 1171957
2020 03 21.56256 15 02 31.742 -12 30 27.90 20.6 w F51 – Pan-STARRS 1, Haleakala MPS 1171957
2020 03 21.57435 15 02 31.756 -12 30 27.37 20.8 w F51 – Pan-STARRS 1, Haleakala MPS 1171957
2020 03 21.58629 15 02 31.763 -12 30 26.90 20.9 w F51 – Pan-STARRS 1, Haleakala MPS 1171957
2020 03 23.58103 15 02 34.771 -12 28 59.45 20.7 w F51 – Pan-STARRS 1, Haleakala MPS 1171957
2020 03 23.59215 15 02 34.732 -12 28 58.87 20.8 w F51 – Pan-STARRS 1, Haleakala MPS 1171957
2020 03 23.60325 15 02 34.697 -12 28 58.25 20.8 w F51 – Pan-STARRS 1, Haleakala MPS 1171957
2020 03 23.61433 15 02 34.656 -12 28 57.66 20.8 w F51 – Pan-STARRS 1, Haleakala MPS 1171957
2020 04 01.55632 15 01 05.974 -12 16 59.71 20.3 w F51 – Pan-STARRS 1, Haleakala MPS 1171957
2020 04 01.56881 15 01 05.706 -12 16 58.41 20.4 w F51 – Pan-STARRS 1, Haleakala MPS 1171957
2020 04 01.58128 15 01 05.436 -12 16 56.85 20.7 w F51 – Pan-STARRS 1, Haleakala MPS 1171957
2020 04 01.59373 15 01 05.160 -12 16 55.58 20.4 w F51 – Pan-STARRS 1, Haleakala MPS 1171957
2020 04 03.43084 15 00 26.69 -12 13 29.7 20.5 G G96 – Mt. Lemmon Survey MPS 1171957
2020 04 03.43618 15 00 26.58 -12 13 28.4 20.3 G G96 – Mt. Lemmon Survey MPS 1171957
2020 04 03.44152 15 00 26.43 -12 13 28.0 20.8 G G96 – Mt. Lemmon Survey MPS 1171957
2020 04 03.44685 15 00 26.26 -12 13 28.7 19.9 G G96 – Mt. Lemmon Survey MPS 1171957
2020 04 15.77248 14 53 26.61 -11 43 19.1 20.2 R D29 – Purple Mountain Observatory, XuYi Station MPS 1175323
2020 04 15.78536 14 53 26.02 -11 43 16.9 18.9 R D29 – Purple Mountain Observatory, XuYi Station MPS 1175323
2020 04 16.36612 14 53 00.21 -11 41 38.0   G96 – Mt. Lemmon Survey MPS 1175323
2020 04 16.37143 14 52 59.95 -11 41 37.1   G96 – Mt. Lemmon Survey MPS 1175323
2020 04 16.37672 14 52 59.72 -11 41 35.9 20.1 G G96 – Mt. Lemmon Survey MPS 1175323
